Location: Amsterdam
(30.7274°N, 84.4357°W)
Time: 16:42:19
(UTC+00:00)

Injun/Solrad 3 - Pass Details

Date: 18 February 2026
Orbit: 871 x 985 km, 66.8° (Epoch: 11 March)

Event Time Altitude Azimuth Distance (km) Brightness Sun altitude
Rises 17:55:30 0° 257° (WSW) 3,451 11.0 47.8°
Reaches altitude 10° 17:59:42 10° 287° (WNW) 2,524 10.2 47.8°
Maximum altitude 18:02:02 12° 311° (NW) 2,363 9.9 47.8°
Drops below altitude 10° 18:04:24 10° 335° (NNW) 2,544 9.9 47.7°
Sets 18:08:41 0° 4° (N) 3,509 10.5 47.6°
